Location: Unspecified
(0.0000°N, 0.0000°E)
Time: 15:02:36
(UTC+00:00)

Hubble Space Telescope - Visible Passes

Search period start: 27 January 2022 00:00
Search period end: 06 February 2022 00:00
Orbit: 534 x 538 km, 28.5° (Epoch: 26 January)

Date Brightness Start Highest point End Pass type
(mag) Time Alt. Az. Time Alt. Az. Time Alt. Az.
27 Jan 3.8 03:49:18 11° ENE 03:49:18 11° ENE 03:49:38 10° ENE visible
27 Jan 0.9 05:24:37 16° WNW 05:27:44 65° SSW 05:31:50 10° SE visible
28 Jan 1.3 05:14:12 22° W 05:16:29 45° SSW 05:20:27 10° SE visible
29 Jan 1.8 05:03:46 25° WSW 05:05:14 32° SSW 05:08:57 10° SE visible
30 Jan 2.2 04:53:18 23° SW 04:53:59 24° SSW 04:57:21 10° SSE visible
31 Jan 2.7 04:42:49 18° SSW 04:42:49 18° SSW 04:45:35 10° SSE visible
01 Feb 3.2 04:32:17 13° SSW 04:32:17 13° SSW 04:33:33 10° S visible
